QPF
0.02 0.01 0.01 0.01 0.02 0.02 0.03 0.02 0.02 0.02 0.01 0.01 0.02 0.01 0.01 0.01 0.01 0.01 0.00 0.00 0.00 0.00 0.00 0.00 0.00 0.00 0.00 0.00 0.00 0.00 0.00 0.00 0.00 0.00 0.00 0.00 0.00 0.00
0.01 0.01 0.01 0.01 0.01 0.01 0.02 0.02 0.03 0.02 0.01 0.00 0.00 0.01 0.01 0.01 0.01 0.01 0.00 0.00 0.00 0.00 0.00 0.00 0.00 0.00 0.00 0.00 0.00 0.00 0.00 0.00 0.00 0.00 0.00 0.00 0.00 0.00
0.01 0.01 0.01 0.01 0.01 0.01 0.02 0.03 0.03 0.02 0.02 0.01 0.01 0.02 0.02 0.01 0.01 0.01 0.00 0.00 0.01 0.01 0.01 0.01 0.01 0.00 0.00 0.00 0.00 0.00 0.00 0.00 0.00 0.00 0.00 0.00 0.00 0.00
0.02 0.02 0.01 0.01 0.01 0.01 0.02 0.03 0.03 0.02 0.02 0.01 0.01 0.02 0.01 0.01 0.01 0.01 0.01 0.01 0.01 0.01 0.01 0.01 0.01 0.01 0.01 0.00 0.00 0.00 0.00 0.00 0.00 0.00 0.00 0.00 0.00 0.00
0.04 0.04 0.03 0.02 0.02 0.01 0.01 0.02 0.03 0.03 0.02 0.01 0.01 0.01 0.02 0.02 0.02 0.02 0.02 0.02 0.02 0.02 0.02 0.02 0.02 0.02 0.01 0.01 0.01 0.00 0.00 0.00 0.00 0.00 0.00 0.00 0.00 0.00
0.04 0.05 0.04 0.03 0.02 0.02 0.02 0.01 0.02 0.03 0.03 0.03 0.01 0.01 0.01 0.02 0.04 0.04 0.04 0.04 0.05 0.05 0.04 0.03 0.02 0.02 0.02 0.01 0.01 0.01 0.01 0.00 0.00 0.00 0.00 0.00 0.00 0.00
0.04 0.05 0.05 0.04 0.03 0.04 0.03 0.02 0.04 0.04 0.04 0.03 0.02 0.02 0.01 0.02 0.02 0.03 0.03 0.03 0.04 0.06 0.06 0.04 0.03 0.02 0.02 0.02 0.01 0.01 0.01 0.01 0.01 0.01 0.00 0.00 0.00 0.00
0.06 0.07 0.06 0.07 0.06 0.07 0.06 0.06 0.05 0.05 0.05 0.04 0.03 0.03 0.02 0.03 0.03 0.04 0.04 0.04 0.04 0.05 0.06 0.06 0.06 0.05 0.04 0.04 0.04 0.03 0.02 0.02 0.01 0.01 0.01 0.00 0.00 0.00
0.10 0.09 0.09 0.07 0.07 0.07 0.07 0.07 0.05 0.05 0.05 0.04 0.03 0.02 0.02 0.02 0.03 0.04 0.05 0.06 0.07 0.08 0.08 0.08 0.07 0.06 0.05 0.04 0.04 0.03 0.02 0.02 0.02 0.02 0.01 0.01 0.01 0.01
0.12 0.10 0.09 0.09 0.08 0.07 0.06 0.05 0.04 0.04 0.04 0.04 0.02 0.02 0.02 0.02 0.03 0.04 0.06 0.07 0.07 0.06 0.05 0.03 0.02 0.02 0.02 0.02 0.02 0.02 0.01 0.02 0.02 0.01 0.01 0.01 0.01 0.01
0.13 0.11 0.09 0.08 0.07 0.06 0.06 0.05 0.04 0.04 0.04 0.05 0.04 0.04 0.03 0.03 0.03 0.03 0.03 0.03 0.02 0.02 0.02 0.02 0.01 0.01 0.01 0.01 0.01 0.01 0.01 0.01 0.01 0.01 0.01 0.00 0.01 0.01
0.07 0.08 0.08 0.07 0.06 0.05 0.06 0.06 0.05 0.04 0.04 0.04 0.03 0.03 0.03 0.03 0.04 0.03 0.03 0.03 0.02 0.02 0.02 0.02 0.02 0.02 0.01 0.00 0.00 0.00 0.00 0.00 0.01 0.01 0.01 0.01 0.01 0.01
0.05 0.05 0.06 0.08 0.08 0.08 0.07 0.05 0.04 0.05 0.04 0.04 0.03 0.03 0.03 0.03 0.03 0.03 0.04 0.04 0.04 0.03 0.03 0.04 0.03 0.02 0.02 0.01 0.01 0.01 0.01 0.01 0.01 0.01 0.01 0.01 0.01 0.01
0.07 0.07 0.08 0.10 0.10 0.09 0.08 0.07 0.07 0.08 0.07 0.07 0.05 0.05 0.06 0.06 0.05 0.05 0.04 0.04 0.04 0.04 0.04 0.04 0.04 0.03 0.03 0.02 0.02 0.01 0.01 0.01 0.01 0.01 0.01 0.01 0.01 0.01
0.06 0.09 0.10 0.12 0.12 0.11 0.11 0.10 0.10 0.09 0.09 0.08 0.07 0.06 0.06 0.05 0.05 0.04 0.04 0.04 0.03 0.03 0.03 0.03 0.03 0.03 0.03 0.03 0.02 0.01 0.01 0.01 0.01 0.01 0.01 0.01 0.01 0.01
0.10 0.10 0.10 0.10 0.09 0.09 0.09 0.09 0.07 0.06 0.06 0.06 0.05 0.05 0.05 0.05 0.05 0.04 0.04 0.04 0.04 0.03 0.03 0.03 0.04 0.04 0.03 0.03 0.02 0.02 0.02 0.01 0.01 0.01 0.01 0.01 0.01 0.01
0.13 0.11 0.10 0.09 0.08 0.08 0.07 0.06 0.05 0.05 0.05 0.05 0.05 0.05 0.05 0.05 0.06 0.06 0.06 0.06 0.07 0.06 0.06 0.05 0.05 0.04 0.03 0.03 0.02 0.02 0.02 0.02 0.02 0.02 0.03 0.02 0.03 0.03
0.12 0.10 0.09 0.09 0.08 0.07 0.06 0.05 0.05 0.05 0.05 0.06 0.05 0.04 0.04 0.05 0.06 0.08 0.09 0.11 0.11 0.10 0.08 0.06 0.05 0.04 0.04 0.04 0.04 0.04 0.04 0.04 0.04 0.03 0.03 0.03 0.03 0.04
0.06 0.05 0.06 0.06 0.07 0.06 0.06 0.06 0.06 0.07 0.07 0.07 0.07 0.06 0.07 0.08 0.09 0.09 0.10 0.10 0.10 0.09 0.08 0.07 0.07 0.06 0.06 0.05 0.04 0.04 0.03 0.03 0.03 0.03 0.03 0.02 0.02 0.01
0.06 0.06 0.06 0.06 0.06 0.07 0.07 0.07 0.07 0.07 0.07 0.07 0.06 0.06 0.07 0.07 0.07 0.08 0.08 0.08 0.07 0.06 0.06 0.05 0.05 0.05 0.05 0.05 0.04 0.03 0.02 0.02 0.02 0.02 0.02 0.02 0.01 0.01
0.07 0.07 0.07 0.06 0.06 0.06 0.06 0.06 0.06 0.06 0.06 0.05 0.05 0.05 0.05 0.05 0.05 0.05 0.05 0.06 0.05 0.04 0.04 0.03 0.02 0.03 0.02 0.02 0.02 0.02 0.01 0.02 0.02 0.01 0.01 0.01 0.01 0.01
0.04 0.05 0.05 0.06 0.06 0.05 0.05 0.05 0.05 0.05 0.05 0.05 0.04 0.04 0.04 0.05 0.05 0.05 0.04 0.04 0.03 0.03 0.02 0.02 0.02 0.01 0.01 0.01 0.01 0.01 0.01 0.01 0.01 0.01 0.01 0.01 0.01 0.01
0.03 0.03 0.02 0.02 0.02 0.02 0.02 0.01 0.02 0.02 0.03 0.03 0.03 0.03 0.03 0.03 0.03 0.03 0.03 0.03 0.03 0.03 0.02 0.02 0.01 0.01 0.01 0.01 0.01 0.01 0.01 0.01 0.01 0.01 0.01 0.01 0.02 0.02
MSLP
1016.48 1016.79 1017.07 1017.31 1017.50 1017.62 1017.67 1017.66 1017.59 1017.47 1017.34 1017.19 1017.04 1016.91 1016.80 1016.71 1016.66 1016.64 1016.67 1016.75 1016.88 1017.05 1017.26 1017.48 1017.70 1017.89 1018.04 1018.15 1018.20 1018.23 1018.24 1018.24 1018.27 1018.31 1018.37 1018.45 1018.52 1018.56
1016.10 1016.41 1016.70 1016.93 1017.12 1017.25 1017.32 1017.34 1017.31 1017.25 1017.16 1017.06 1016.94 1016.82 1016.69 1016.57 1016.46 1016.38 1016.34 1016.36 1016.43 1016.56 1016.75 1016.96 1017.17 1017.38 1017.54 1017.66 1017.73 1017.75 1017.75 1017.75 1017.75 1017.77 1017.81 1017.87 1017.93 1017.98
1015.75 1016.06 1016.33 1016.56 1016.75 1016.89 1016.98 1017.04 1017.06 1017.06 1017.04 1016.99 1016.92 1016.82 1016.70 1016.55 1016.41 1016.27 1016.16 1016.10 1016.11 1016.18 1016.31 1016.49 1016.68 1016.87 1017.03 1017.14 1017.20 1017.22 1017.20 1017.17 1017.15 1017.15 1017.18 1017.23 1017.29 1017.35
1015.44 1015.74 1016.00 1016.23 1016.41 1016.55 1016.67 1016.76 1016.84 1016.89 1016.94 1016.95 1016.94 1016.88 1016.77 1016.63 1016.45 1016.27 1016.10 1015.97 1015.90 1015.89 1015.96 1016.07 1016.21 1016.36 1016.48 1016.56 1016.59 1016.58 1016.54 1016.49 1016.45 1016.43 1016.45 1016.50 1016.57 1016.65
1015.21 1015.49 1015.74 1015.94 1016.11 1016.25 1016.37 1016.49 1016.61 1016.72 1016.82 1016.89 1016.93 1016.92 1016.84 1016.71 1016.52 1016.31 1016.09 1015.90 1015.75 1015.66 1015.64 1015.66 1015.73 1015.80 1015.85 1015.88 1015.87 1015.82 1015.75 1015.68 1015.62 1015.60 1015.63 1015.69 1015.78 1015.89
1015.04 1015.31 1015.52 1015.70 1015.85 1015.97 1016.09 1016.21 1016.34 1016.48 1016.62 1016.74 1016.83 1016.86 1016.82 1016.71 1016.54 1016.31 1016.06 1015.82 1015.60 1015.43 1015.31 1015.23 1015.20 1015.18 1015.15 1015.10 1015.03 1014.95 1014.85 1014.76 1014.71 1014.69 1014.73 1014.82 1014.95 1015.09
1014.93 1015.17 1015.36 1015.51 1015.62 1015.70 1015.79 1015.89 1016.00 1016.14 1016.29 1016.44 1016.56 1016.63 1016.64 1016.57 1016.42 1016.20 1015.94 1015.66 1015.39 1015.14 1014.93 1014.76 1014.62 1014.50 1014.39 1014.27 1014.14 1014.02 1013.90 1013.81 1013.76 1013.76 1013.83 1013.94 1014.10 1014.28
1014.83 1015.06 1015.22 1015.33 1015.40 1015.44 1015.48 1015.53 1015.60 1015.71 1015.84 1015.99 1016.12 1016.22 1016.27 1016.24 1016.13 1015.94 1015.70 1015.41 1015.11 1014.81 1014.52 1014.27 1014.04 1013.83 1013.64 1013.46 1013.28 1013.13 1013.00 1012.91 1012.87 1012.90 1012.98 1013.12 1013.30 1013.49
1014.72 1014.94 1015.09 1015.18 1015.20 1015.19 1015.17 1015.15 1015.17 1015.22 1015.31 1015.43 1015.56 1015.68 1015.75 1015.77 1015.71 1015.57 1015.36 1015.09 1014.78 1014.45 1014.13 1013.81 1013.52 1013.25 1012.99 1012.77 1012.56 1012.39 1012.26 1012.17 1012.15 1012.19 1012.28 1012.43 1012.60 1012.78
1014.60 1014.82 1014.97 1015.04 1015.04 1014.99 1014.91 1014.83 1014.77 1014.76 1014.79 1014.87 1014.99 1015.11 1015.21 1015.26 1015.25 1015.17 1015.01 1014.77 1014.49 1014.16 1013.82 1013.48 1013.15 1012.84 1012.56 1012.31 1012.09 1011.92 1011.78 1011.70 1011.68 1011.70 1011.78 1011.90 1012.04 1012.18
1014.46 1014.71 1014.88 1014.96 1014.96 1014.89 1014.77 1014.64 1014.52 1014.44 1014.42 1014.46 1014.54 1014.66 1014.78 1014.87 1014.91 1014.88 1014.77 1014.58 1014.33 1014.03 1013.69 1013.35 1013.02 1012.71 1012.42 1012.16 1011.95 1011.77 1011.63 1011.54 1011.49 1011.48 1011.51 1011.56 1011.62 1011.68
1014.37 1014.66 1014.87 1014.99 1015.01 1014.94 1014.81 1014.65 1014.50 1014.38 1014.31 1014.31 1014.37 1014.48 1014.60 1014.72 1014.79 1014.80 1014.74 1014.59 1014.38 1014.11 1013.80 1013.48 1013.16 1012.86 1012.58 1012.33 1012.12 1011.94 1011.79 1011.66 1011.56 1011.48 1011.41 1011.36 1011.32 1011.27
1014.39 1014.73 1014.99 1015.17 1015.23 1015.20 1015.09 1014.94 1014.77 1014.63 1014.54 1014.52 1014.56 1014.65 1014.77 1014.89 1014.98 1015.01 1014.97 1014.86 1014.67 1014.43 1014.15 1013.85 1013.55 1013.27 1013.01 1012.77 1012.55 1012.35 1012.16 1011.98 1011.80 1011.62 1011.44 1011.25 1011.07 1010.90
1014.58 1014.98 1015.31 1015.54 1015.68 1015.70 1015.64 1015.51 1015.37 1015.23 1015.13 1015.09 1015.11 1015.18 1015.28 1015.39 1015.46 1015.49 1015.46 1015.35 1015.17 1014.94 1014.68 1014.40 1014.12 1013.85 1013.60 1013.36 1013.13 1012.89 1012.65 1012.38 1012.09 1011.79 1011.46 1011.13 1010.81 1010.50
1015.02 1015.46 1015.84 1016.15 1016.34 1016.43 1016.43 1016.35 1016.23 1016.11 1016.02 1015.97 1015.97 1016.01 1016.08 1016.15 1016.19 1016.18 1016.12 1015.99 1015.80 1015.56 1015.29 1015.02 1014.74 1014.47 1014.22 1013.96 1013.70 1013.41 1013.09 1012.73 1012.32 1011.87 1011.40 1010.93 1010.46 1010.03
1015.73 1016.19 1016.61 1016.96 1017.22 1017.36 1017.40 1017.37 1017.29 1017.19 1017.10 1017.04 1017.02 1017.02 1017.04 1017.05 1017.03 1016.96 1016.84 1016.67 1016.44 1016.17 1015.88 1015.59 1015.30 1015.02 1014.75 1014.46 1014.15 1013.79 1013.38 1012.91 1012.38 1011.79 1011.18 1010.57 1009.99 1009.46
1016.69 1017.16 1017.59 1017.96 1018.24 1018.42 1018.49 1018.49 1018.43 1018.34 1018.25 1018.17 1018.11 1018.06 1018.01 1017.94 1017.85 1017.70 1017.51 1017.26 1016.98 1016.66 1016.34 1016.02 1015.71 1015.40 1015.09 1014.76 1014.39 1013.96 1013.45 1012.87 1012.22 1011.51 1010.78 1010.06 1009.39 1008.79
1017.86 1018.30 1018.72 1019.08 1019.35 1019.53 1019.61 1019.61 1019.55 1019.45 1019.34 1019.23 1019.11 1019.00 1018.87 1018.72 1018.53 1018.30 1018.02 1017.70 1017.35 1016.99 1016.62 1016.26 1015.92 1015.57 1015.22 1014.84 1014.40 1013.89 1013.30 1012.62 1011.87 1011.06 1010.24 1009.44 1008.71 1008.07
1019.15 1019.55 1019.93 1020.24 1020.48 1020.62 1020.67 1020.64 1020.56 1020.44 1020.29 1020.13 1019.95 1019.77 1019.56 1019.32 1019.04 1018.72 1018.36 1017.97 1017.56 1017.15 1016.74 1016.35 1015.96 1015.58 1015.18 1014.75 1014.25 1013.67 1013.00 1012.24 1011.41 1010.53 1009.65 1008.80 1008.04 1007.39
1020.47 1020.82 1021.13 1021.38 1021.55 1021.63 1021.63 1021.56 1021.43 1021.26 1021.07 1020.85 1020.61 1020.35 1020.06 1019.74 1019.38 1018.99 1018.56 1018.11 1017.65 1017.20 1016.76 1016.33 1015.92 1015.50 1015.06 1014.58 1014.02 1013.38 1012.65 1011.83 1010.94 1010.02 1009.11 1008.24 1007.48 1006.84
1021.73 1022.02 1022.25 1022.42 1022.52 1022.53 1022.47 1022.34 1022.16 1021.94 1021.69 1021.42 1021.12 1020.79 1020.44 1020.05 1019.62 1019.17 1018.69 1018.19 1017.70 1017.22 1016.75 1016.31 1015.87 1015.42 1014.95 1014.42 1013.82 1013.14 1012.36 1011.50 1010.59 1009.65 1008.72 1007.87 1007.11 1006.50
1022.86 1023.08 1023.25 1023.35 1023.37 1023.32 1023.20 1023.01 1022.79 1022.52 1022.22 1021.90 1021.54 1021.16 1020.75 1020.31 1019.83 1019.33 1018.82 1018.30 1017.78 1017.29 1016.81 1016.34 1015.89 1015.42 1014.91 1014.36 1013.73 1013.01 1012.21 1011.33 1010.41 1009.48 1008.57 1007.73 1007.01 1006.42
1023.81 1023.98 1024.08 1024.12 1024.09 1023.98 1023.81 1023.59 1023.33 1023.03 1022.70 1022.34 1021.95 1021.53 1021.08 1020.60 1020.09 1019.56 1019.02 1018.48 1017.95 1017.45 1016.96 1016.48 1016.01 1015.52 1015.00 1014.42 1013.77 1013.03 1012.23 1011.36 1010.45 1009.54 1008.67 1007.87 1007.18 1006.62
Thickness
5738 5737 5735 5736 5735 5734 5733 5730 5722 5715 5716 5724 5729 5733 5733 5731 5730 5728 5726 5725 5723 5721 5719 5717 5715 5713 5711 5709 5707 5705 5703 5701 5700 5698 5696 5694 5693 5691
5737 5735 5734 5734 5734 5734 5733 5731 5728 5723 5718 5724 5728 5732 5732 5731 5729 5728 5726 5724 5722 5720 5718 5716 5715 5713 5711 5709 5707 5705 5703 5701 5699 5697 5695 5693 5692 5690
5735 5734 5733 5733 5732 5731 5731 5730 5728 5725 5720 5724 5727 5730 5729 5728 5728 5726 5724 5723 5721 5720 5718 5716 5714 5712 5710 5708 5706 5704 5702 5700 5698 5696 5694 5692 5690 5687
5733 5732 5731 5732 5730 5729 5728 5727 5726 5726 5722 5720 5723 5725 5726 5726 5725 5723 5722 5721 5720 5719 5717 5715 5713 5711 5710 5708 5705 5703 5701 5699 5696 5694 5692 5689 5687 5685
5732 5731 5730 5729 5727 5727 5726 5725 5725 5725 5723 5720 5719 5722 5722 5723 5720 5720 5720 5719 5718 5717 5716 5715 5713 5711 5708 5706 5704 5702 5699 5697 5694 5692 5689 5687 5684 5682
5732 5731 5730 5728 5726 5725 5723 5722 5722 5720 5719 5717 5716 5717 5717 5719 5717 5714 5713 5715 5715 5716 5715 5713 5711 5709 5707 5704 5702 5699 5697 5694 5692 5689 5686 5684 5681 5678
5729 5729 5728 5727 5727 5725 5723 5720 5719 5716 5714 5713 5712 5711 5711 5711 5711 5712 5710 5710 5710 5710 5709 5709 5707 5706 5704 5702 5699 5697 5694 5692 5689 5686 5683 5680 5677 5675
5725 5725 5725 5724 5724 5722 5721 5720 5718 5715 5712 5710 5708 5707 5707 5708 5708 5707 5704 5701 5700 5705 5703 5703 5703 5701 5700 5698 5696 5694 5691 5688 5685 5682 5679 5676 5673 5670
5723 5721 5721 5721 5720 5718 5717 5716 5715 5714 5713 5710 5707 5706 5705 5706 5704 5702 5700 5697 5697 5700 5697 5695 5695 5694 5695 5694 5691 5689 5687 5684 5681 5678 5674 5671 5668 5665
5720 5719 5717 5716 5716 5714 5712 5710 5709 5709 5709 5708 5707 5707 5706 5704 5702 5700 5697 5695 5694 5693 5691 5686 5687 5686 5689 5687 5685 5683 5680 5678 5675 5672 5669 5665 5661 5658
5717 5716 5714 5712 5712 5710 5707 5705 5704 5704 5705 5704 5703 5702 5701 5699 5697 5693 5689 5685 5683 5683 5682 5679 5680 5679 5680 5679 5678 5676 5673 5670 5667 5664 5660 5657 5654 5651
5712 5711 5710 5709 5707 5705 5702 5700 5697 5698 5698 5698 5696 5695 5693 5691 5689 5686 5683 5678 5675 5673 5674 5671 5670 5668 5666 5669 5668 5666 5663 5661 5657 5654 5652 5649 5645 5641
5707 5706 5705 5704 5703 5701 5699 5697 5695 5694 5691 5690 5688 5686 5684 5682 5680 5678 5676 5672 5668 5666 5666 5662 5660 5657 5653 5654 5655 5654 5651 5649 5646 5644 5641 5639 5635 5631
5703 5702 5700 5699 5697 5695 5692 5691 5689 5687 5684 5680 5678 5676 5674 5672 5671 5669 5667 5665 5662 5660 5658 5654 5650 5647 5643 5641 5640 5641 5639 5637 5634 5632 5630 5627 5624 5621
5698 5696 5694 5691 5689 5687 5685 5683 5680 5677 5675 5671 5669 5668 5666 5664 5662 5660 5658 5655 5653 5650 5647 5644 5639 5637 5633 5630 5628 5627 5625 5624 5622 5619 5617 5614 5612 5609
5689 5687 5685 5683 5680 5678 5676 5673 5671 5669 5666 5663 5661 5659 5657 5654 5652 5649 5645 5643 5639 5637 5635 5632 5629 5625 5622 5619 5616 5614 5611 5609 5608 5606 5603 5601 5599 5596
5681 5678 5675 5672 5669 5667 5664 5662 5660 5657 5655 5653 5650 5648 5645 5642 5639 5636 5633 5629 5625 5622 5620 5618 5617 5614 5611 5607 5603 5601 5598 5596 5594 5592 5589 5586 5585 5582
5673 5667 5663 5660 5658 5655 5653 5650 5647 5645 5642 5640 5637 5634 5631 5628 5625 5622 5619 5615 5611 5608 5605 5603 5601 5599 5596 5593 5590 5586 5584 5581 5579 5577 5574 5572 5571 5569
5660 5655 5651 5647 5644 5642 5639 5636 5633 5631 5629 5626 5623 5620 5617 5614 5611 5607 5604 5600 5597 5594 5591 5588 5585 5583 5579 5577 5575 5574 5569 5567 5564 5562 5560 5558 5556 5556
5644 5640 5636 5633 5630 5627 5624 5621 5618 5616 5613 5610 5607 5604 5602 5599 5595 5591 5588 5585 5581 5578 5576 5573 5570 5567 5564 5561 5560 5559 5557 5554 5551 5549 5547 5546 5544 5543
5628 5624 5621 5618 5615 5612 5609 5605 5602 5599 5597 5594 5591 5588 5585 5582 5579 5576 5573 5570 5567 5564 5561 5558 5556 5554 5551 5548 5545 5544 5543 5541 5538 5536 5534 5532 5531 5529
5614 5610 5607 5604 5600 5597 5593 5590 5587 5584 5581 5578 5575 5572 5570 5567 5564 5561 5559 5556 5552 5550 5547 5545 5543 5540 5537 5533 5530 5529 5528 5528 5526 5524 5521 5519 5515 5514
5600 5596 5593 5589 5586 5582 5578 5575 5572 5569 5566 5563 5560 5558 5555 5553 5550 5547 5544 5541 5539 5536 5534 5531 5528 5525 5522 5520 5517 5515 5515 5514 5512 5511 5509 5508 5506 5504